Current weather by "City, St" or "zip code"  
 

Current Conditions: Clinton Municipal Airport, IA

Fair


32.0 F

Last Updated on Oct 31 2020, 4:56 am CDT
Humidity: 82%
Wind Speed: SE 12.7 mph
Barometer 30.23 in
Dewpoint: 27.0 F
Visibility: 10.00 mi
Precip: Trace
Heat Index: NA
Wind Chill: 22 F
Current conditions at:

Clinton Municipal Airport, IA (KCWI)

Lat: 41.82954 Lon: 90.33279

Local Radar Image active severe weather and emergency alerts image image weather storm and storm spotter reports image weather observation monitoring service image
Local
Radar
Active
Alerts
Storm Reports Obs
Monitoring

Sign-up For Email & Text Message Weather Alert Notification Services



Advertise Here

Observation History for Clinton Municipal Airport, IA


Time Wind
(mph)
Vis
(mi)
Weather Precip (in) Temperature (F) Relative
Humidity
Wind
Chill
(F)
Heat
Index
(F)
Pressure
Air Dwpt altimeter
(in)
sea level
(mb)
Rmks
4:56 am CDT SE 12.7 10.00 Fair Trace 32.0 27.0 82% 22 NA 30.23 1024.4
3:56 am CDT SE 12.7 8.00 Unknown Precip -- 32.0 26.1 79% 22 NA 30.25 1025.2
2:56 am CDT SE 11.5 6.00 Unknown Precip Trace 32.0 26.1 79% 23 NA 30.27 1025.7
1:56 am CDT SE 11.5 9.00 Fair -- 32.0 25.0 75% 23 NA 30.28 1026.1
12:56 am CDT SE 11.5 10.00 Fair -- 33.0 24.1 70% 24 NA 30.29 1026.7
11:56 pm CDT SE 10.4 10.00 Fair -- 31.0 25.0 79% 22 NA 30.30 1027.1
10:56 pm CDT E 9.2 10.00 Fair -- 31.0 25.0 79% 23 NA 30.31 1027.5
9:56 pm CDT SE 9.2 10.00 Fair -- 33.0 24.1 70% 25 NA 30.31 1027.4
8:56 pm CDT E 5.8 10.00 Fair -- 33.0 24.1 70% 28 NA 30.31 1027.5
7:56 pm CDT E 4.6 10.00 Fair -- 34.0 24.1 67% 30 NA 30.30 1027.4
6:56 pm CDT E 6.9 10.00 Fair -- 35.0 24.1 64% 29 NA 30.29 1026.9
5:56 pm CDT E 5.8 10.00 Fair -- 39.0 25.0 57% 35 NA 30.28 1026.5
4:56 pm CDT E 4.6 10.00 Fair -- 45.0 24.1 44% 43 NA 30.29 1026.8
3:56 pm CDT E 5.8 10.00 Fair -- 46.0 24.1 42% 43 NA 30.30 1026.8
2:56 pm CDT NE 5.8 10.00 Fair -- 45.0 23.0 42% 42 NA 30.30 1027.0
1:56 pm CDT E 5.8 10.00 Fair -- 45.0 25.0 46% 42 NA 30.31 1027.2
12:56 pm CDT NE 8.1 10.00 Fair -- 44.0 27.0 51% 39 NA 30.32 1027.8
11:56 am CDT NE 5.8 10.00 Fair -- 42.0 27.0 55% 38 NA 30.33 1028.2
10:56 am CDT N 0.0 10.00 Fair -- 40.0 26.1 58% NA NA 30.33 1028.1
9:56 am CDT 3.5 10.00 Fair -- 38.0 28.0 68% NA NA 30.32 1027.4
8:56 am CDT NE 4.6 10.00 A Few Clouds -- 33.0 30.9 92% 29 NA 30.29 1026.8
7:56 am CDT N 3.5 10.00 A Few Clouds -- 29.0 27.0 92% NA NA 30.26 1025.8
6:56 am CDT N 4.6 10.00 Overcast -- 29.0 28.0 96% 24 NA 30.25 1025.3
5:56 am CDT N 0.0 10.00 Partly Cloudy -- 28.0 27.0 96% NA NA 30.22 1024.4

Regional Weather Observation


Clinton Municipal Airport, IA (KCWI)

Fair
32.0 F

Dubuque Regional Airport, IA (KDBQ)

Fair
31.0 F

Davenport Municipal Airport, IA (KDVN)

Fair
33.0 F

Moline Quad-City Airport, IL (KMLI)

Fair
34.0 F

Platteville Municipal Airport, WI (KPVB)

Fair
31.0 F

Monticello Regional Airport, IA (KMXO)

Fair
32.0 F